SCP
0 0 0 0 0 0 0 1 1 1 1 1 1 1 0 0 0 0 0 0 0 1 1 1 1 0 0 0 0 0 0 1 1 1 1 1 1 1 1 1 1 0 0
0 0 0 0 0 0 0 1 1 1 1 1 1 1 0 0 0 0 0 0 0 1 1 1 1 0 0 0 0 0 0 0 1 1 1 1 1 1 1 1 1 1 0
0 0 0 0 0 0 0 1 1 1 1 1 1 0 0 0 0 0 0 0 0 1 1 1 1 1 0 0 0 0 0 0 1 1 1 1 1 1 1 1 1 1 1
0 0 0 0 0 0 0 0 0 1 1 1 0 0 0 0 0 0 0 0 0 1 1 1 1 1 1 1 0 0 0 1 1 1 1 1 1 1 1 1 1 1 1
0 0 0 0 0 0 0 0 0 1 1 1 0 0 0 0 0 0 0 0 0 0 1 1 1 1 1 1 1 0 1 1 1 1 1 1 1 1 1 1 1 1 1
0 0 0 0 0 0 0 0 0 1 1 1 0 0 0 0 0 0 0 0 0 0 1 1 1 1 1 1 1 1 1 1 1 1 1 1 1 1 1 1 1 1 1
0 0 0 0 0 0 0 0 0 1 1 1 0 0 0 0 0 0 0 0 0 1 1 1 1 1 1 1 1 1 1 1 1 0 0 1 1 1 1 1 1 1 1
0 0 0 0 0 0 0 0 0 0 1 0 0 0 0 0 0 0 0 0 0 0 0 1 1 1 1 1 1 1 1 1 1 1 1 1 1 1 1 1 1 1 1
0 0 0 0 0 0 0 0 0 0 0 0 0 0 0 0 0 0 0 0 0 0 0 0 0 1 1 1 1 1 1 1 1 1 1 1 1 1 1 1 1 1 1
0 0 0 0 0 0 0 0 0 0 0 0 0 0 0 0 0 0 0 0 0 0 0 0 0 1 1 1 1 1 1 1 1 1 1 1 1 1 1 1 1 1 1
0 0 0 0 0 0 0 0 0 0 0 0 0 0 0 0 0 0 0 0 0 0 0 0 0 0 1 1 1 1 1 1 1 1 1 1 1 1 1 1 1 1 1
0 0 0 0 0 0 0 0 0 0 0 0 0 0 0 0 0 0 0 0 0 0 0 0 0 0 1 1 0 0 1 1 1 1 1 1 1 1 1 1 1 1 1
0 0 0 0 0 0 0 0 0 0 0 0 0 0 0 0 0 0 0 0 0 0 0 0 0 0 0 1 0 0 0 1 1 1 1 1 1 1 1 1 1 1 1
0 0 0 0 0 0 0 0 0 0 0 0 0 0 0 0 0 0 0 0 0 0 0 0 0 0 0 0 0 0 0 0 1 1 1 1 1 1 1 1 1 1 1
0 0 0 0 0 0 0 0 0 0 0 0 0 0 0 0 0 0 0 0 0 0 0 0 0 0 0 0 0 0 0 0 0 1 1 1 1 1 1 1 1 1 1
0 0 0 0 0 0 0 0 0 0 0 0 0 0 0 0 0 0 0 0 0 0 0 0 0 0 0 0 0 0 0 0 0 0 0 0 0 1 1 1 1 1 0
0 0 0 0 0 0 0 0 0 0 0 0 0 0 0 0 0 0 0 0 0 0 0 0 0 0 0 0 0 0 0 0 1 0 0 0 0 0 0 0 0 0 0
0 0 0 0 0 0 0 0 0 0 0 0 0 0 0 0 0 0 0 0 0 0 0 0 0 0 0 1 1 1 0 1 1 0 0 0 0 0 0 0 0 0 0
0 0 0 0 0 0 0 0 0 0 0 0 0 0 0 0 0 0 0 0 0 0 0 0 0 0 0 0 1 1 1 1 1 0 0 0 0 0 0 0 0 0 0
0 0 0 0 0 0 0 0 0 0 0 0 0 0 0 0 0 0 0 0 0 0 0 0 0 0 0 0 1 1 1 1 1 1 0 0 0 0 0 0 0 0 0
0 0 0 0 0 0 0 0 0 0 0 0 0 0 0 0 0 0 0 0 0 0 0 0 0 0 0 0 0 0 1 1 1 1 1 0 0 0 0 0 0 0 0
0 0 0 0 0 0 0 0 0 0 0 0 0 0 0 0 0 0 0 0 0 0 0 0 0 0 0 0 0 0 0 0 0 1 1 1 0 0 0 0 0 0 0
0 0 0 0 0 0 0 0 0 0 0 0 0 0 0 0 0 0 0 0 0 0 0 0 0 0 0 0 0 0 0 0 0 0 1 1 1 0 1 0 0 0 0
0 0 0 0 0 0 0 0 0 0 0 0 0 0 0 0 0 0 0 0 0 0 0 0 0 0 0 0 0 0 0 0 0 0 0 0 0 0 1 1 0 0 0
0 0 0 0 0 0 0 0 0 0 0 0 0 0 0 0 0 0 0 0 0 0 0 0 0 0 0 0 0 0 0 0 0 0 0 0 0 0 0 0 0 0 0
0 0 0 0 0 0 0 0 0 0 0 0 0 0 0 0 0 0 0 0 0 0 0 0 0 0 0 0 0 0 0 0 0 0 0 0 0 0 0 0 0 0 0
Wind_Speed
2 2 2 2 2 2 2 2 2 2 2 2 3 3 4 4 4 3 3 7 8 8 9 10 10 10 10 10 9 9 9 9 9 9 9 10 10 10 10 10 10 10 10
1 2 2 2 2 2 2 2 2 2 2 2 2 3 3 3 4 4 3 4 7 7 8 9 10 11 11 10 10 10 9 10 10 10 10 10 10 10 10 10 10 10 9
1 1 2 2 2 2 2 2 2 1 1 1 2 3 3 3 3 4 3 2 3 5 7 8 9 10 11 11 11 10 10 10 10 10 10 10 10 10 10 10 10 10 9
2 1 1 2 3 2 1 1 1 1 1 1 1 2 2 2 3 3 3 2 2 2 4 6 7 9 10 11 11 11 11 10 10 10 11 11 10 10 10 10 10 9 9
2 1 1 2 2 1 1 1 0 0 1 1 2 2 2 2 2 3 3 3 3 2 2 4 6 7 9 10 11 11 11 11 11 11 11 11 11 11 10 10 10 9 9
3 2 2 2 1 1 1 1 1 1 1 1 2 1 1 2 1 2 3 2 2 3 3 3 3 4 7 9 10 11 12 12 12 12 12 12 11 11 11 11 10 10 9
3 2 2 2 1 1 1 1 1 1 1 0 1 1 1 1 1 1 1 1 2 2 2 3 2 2 3 7 9 10 12 12 13 12 12 13 12 12 12 11 11 11 10
3 2 2 2 1 1 1 1 0 0 1 0 1 1 1 2 1 1 1 2 2 1 2 3 3 3 3 3 5 9 10 11 12 13 12 12 12 12 12 12 12 11 11
4 3 2 2 2 1 1 2 1 1 1 1 0 1 1 1 2 1 1 1 1 1 2 2 3 3 4 3 4 6 9 9 11 12 12 12 12 12 13 13 12 12 11
4 3 3 2 2 1 2 2 1 2 2 1 1 0 1 2 1 1 1 1 1 2 2 3 3 3 3 3 5 7 8 9 11 12 13 12 12 12 12 13 13 12 11
4 4 3 2 2 1 2 2 1 2 2 2 1 1 0 0 1 1 1 1 1 1 2 3 2 3 3 4 4 6 9 9 10 11 12 13 13 13 13 13 13 13 12
4 4 3 2 2 2 2 2 2 2 2 2 2 1 2 1 1 1 1 1 1 1 1 2 2 2 3 3 5 8 9 10 10 10 10 11 12 12 13 14 13 13 13
3 5 4 3 2 2 2 1 1 2 2 2 2 2 2 2 2 2 2 1 1 1 1 1 2 2 3 3 4 7 8 9 10 10 10 10 10 10 12 13 13 13 13
4 5 4 3 3 2 1 1 1 1 1 2 2 2 2 2 2 2 2 2 1 1 1 2 1 2 2 2 4 6 5 9 10 10 10 10 10 10 10 11 12 13 13
4 4 4 4 3 2 1 0 1 1 1 2 2 2 2 2 2 2 2 2 2 2 2 2 1 1 1 2 4 4 4 7 9 9 10 10 10 10 10 11 11 11 10
4 4 4 4 3 3 1 0 1 1 1 1 1 2 2 1 1 1 2 2 2 2 2 1 1 1 1 2 4 4 5 7 9 9 10 10 10 10 10 10 10 10 9
4 4 4 4 3 3 2 1 1 1 1 1 1 1 2 1 1 1 2 2 2 2 2 2 1 1 1 2 2 3 3 4 4 8 9 9 9 10 10 11 10 10 9
4 4 4 4 3 3 2 2 1 1 1 1 1 1 2 1 2 1 1 2 2 2 2 3 1 1 2 3 2 3 3 3 3 6 8 8 9 9 10 10 10 10 10
4 4 4 4 4 3 3 2 1 1 1 1 1 1 2 2 2 1 2 2 2 2 2 2 2 1 1 1 2 2 2 2 3 4 7 8 8 9 9 9 10 10 10
4 4 4 4 4 3 3 2 2 1 1 1 1 1 1 2 2 2 2 2 2 2 2 2 2 1 1 1 1 2 2 2 2 2 3 4 6 8 9 9 9 10 10
3 4 4 4 4 3 2 2 1 1 1 2 2 1 1 1 2 2 2 2 2 2 2 2 2 1 1 2 2 2 2 2 2 2 2 3 3 4 5 7 9 10 11
3 3 4 4 5 4 6 5 2 1 1 1 2 2 2 2 2 2 2 2 3 3 3 2 2 3 3 3 2 2 2 2 2 2 2 2 3 3 4 4 7 9 11
3 3 4 4 4 5 7 6 5 2 1 1 1 2 2 2 3 1 2 2 2 3 4 4 4 4 4 4 3 3 3 3 3 2 2 2 2 3 3 4 8 10 11
2 3 4 4 4 5 7 6 5 2 1 2 2 1 2 2 2 2 1 2 2 2 3 3 4 5 4 4 4 4 3 2 1 1 2 3 2 2 2 3 7 9 10
3 3 3 3 4 6 8 6 4 1 1 2 2 2 2 2 4 3 1 2 3 3 3 3 4 5 5 6 4 3 3 3 2 2 2 2 2 1 2 3 4 7 9
3 3 3 3 3 4 7 7 4 1 1 2 3 3 3 3 4 3 1 2 3 3 3 3 2 2 2 3 6 5 4 4 2 3 3 3 2 2 1 1 2 3 4
Wind_Direction
332 332 325 324 318 311 298 293 280 269 258 234 220 216 217 222 230 224 232 244 250 247 227 214 206 202 200 195 191 185 180 173 170 166 165 164 161 157 153 151 151 150 149
321 329 328 325 317 308 294 281 271 260 253 236 227 218 221 221 229 226 224 240 245 242 229 216 208 202 201 198 193 187 182 179 176 171 168 165 162 159 155 155 154 153 150
321 317 316 311 303 304 302 295 293 264 245 241 235 229 221 220 220 224 225 223 232 236 223 215 212 205 201 199 196 191 184 182 180 176 172 168 165 163 159 157 157 156 155
326 317 312 302 302 310 316 294 285 287 263 257 258 254 237 224 222 220 219 214 208 216 216 210 210 208 203 201 197 194 188 184 184 181 175 172 169 166 163 162 161 159 158
329 314 298 294 307 321 326 311 323 255 257 270 258 248 244 236 228 226 215 210 200 192 191 210 209 210 207 205 200 197 193 189 187 185 181 177 173 170 168 166 165 164 162
325 314 292 298 312 321 327 328 301 278 248 256 271 281 271 260 231 226 218 209 196 195 192 193 197 212 212 209 203 200 197 194 190 188 186 182 179 176 175 174 173 171 169
322 313 303 304 303 279 275 291 299 287 273 314 38 335 328 301 248 237 220 209 209 203 191 194 193 190 210 212 206 203 202 200 195 193 192 188 184 181 180 179 177 177 175
325 313 304 294 283 272 291 281 213 280 279 115 112 75 346 346 325 268 220 211 215 202 205 205 198 196 193 196 203 203 203 201 201 197 195 192 188 187 185 184 183 184 181
322 313 297 281 272 241 247 247 204 179 231 281 139 142 144 238 309 320 260 220 201 203 219 203 201 202 200 193 192 205 202 200 200 200 198 196 194 192 189 188 189 190 188
322 321 314 291 270 251 249 252 212 188 171 212 289 244 192 178 173 315 331 348 228 217 218 218 211 201 199 196 197 199 200 200 203 204 203 201 199 197 194 193 193 193 191
326 327 322 313 291 264 254 251 237 202 183 185 195 202 149 112 169 172 276 323 325 260 228 213 205 203 199 199 199 201 198 197 202 206 207 205 204 202 201 199 197 196 195
321 330 325 321 301 274 252 241 227 208 199 190 196 198 187 185 188 179 202 246 273 277 252 215 202 203 199 196 206 201 198 200 202 204 205 208 207 207 206 204 203 200 200
317 320 326 319 307 284 259 229 215 216 199 193 203 210 209 211 189 177 173 202 245 288 287 247 209 197 198 189 202 199 201 201 204 204 203 205 206 207 208 206 204 204 204
298 305 315 312 309 302 286 242 217 220 202 208 222 214 214 224 199 190 178 169 194 279 282 263 255 207 192 188 202 200 205 203 206 205 204 203 205 205 206 206 205 207 209
306 317 325 329 327 327 304 218 215 227 216 215 221 216 216 228 214 208 193 181 177 212 249 248 253 230 193 194 200 197 204 205 206 207 205 205 204 202 203 205 204 206 209
319 326 334 337 337 342 347 335 232 239 229 241 223 222 227 223 220 207 198 196 193 194 230 254 248 270 213 218 205 199 209 204 207 209 209 204 203 202 201 200 199 200 203
327 331 334 336 339 343 348 353 303 261 248 259 249 228 242 225 212 209 189 184 196 193 225 262 254 251 223 222 214 205 207 204 206 207 206 204 203 203 203 202 199 198 200
331 331 334 341 342 344 345 341 316 312 264 263 265 244 248 233 224 212 191 193 196 198 207 241 256 235 232 215 207 205 208 203 201 200 198 198 200 202 203 202 200 199 200
335 340 343 342 339 336 334 331 320 313 289 264 251 238 244 221 230 219 204 206 210 209 205 218 244 237 240 216 196 204 197 198 203 200 198 201 202 202 203 203 204 204 203
335 337 338 337 333 332 330 330 340 349 353 342 316 265 245 227 227 217 212 213 207 205 207 215 226 233 239 232 191 200 211 203 204 195 196 198 200 201 204 205 207 207 206
332 333 339 343 342 337 336 339 338 346 1 354 346 330 295 289 250 221 213 208 201 201 198 207 217 220 226 208 205 197 212 217 224 196 189 200 195 200 203 208 212 211 207
330 338 342 340 341 337 346 359 4 360 351 347 335 334 327 334 325 328 301 242 213 203 203 203 215 218 229 218 205 196 195 200 237 194 186 215 190 203 205 205 209 211 210
325 330 332 336 330 324 341 357 10 24 17 346 335 337 342 346 350 324 306 306 280 253 224 206 214 222 216 209 193 202 206 206 218 196 173 218 203 217 210 208 205 209 210
307 310 320 326 324 326 344 355 6 24 23 358 344 323 319 322 330 331 320 315 304 287 259 237 225 230 227 214 204 206 203 193 209 206 180 206 202 217 213 211 210 210 208
301 299 302 318 323 320 338 349 357 10 8 347 339 338 326 312 323 338 334 315 312 308 290 262 254 247 241 230 205 178 181 193 224 220 193 194 195 201 221 223 216 210 208
281 300 308 309 309 310 327 342 350 31 352 332 334 335 336 332 327 339 330 304 305 303 312 317 313 303 263 233 212 203 197 199 202 218 197 181 180 169 220 233 216 208 209